Year,Month,Day,Hour,Minute,Value (Times are PST for insolation in W/m^2)
2010,09,13,00,00,0.00
2010,09,13,00,01,0.00
2010,09,13,00,02,0.00
2010,09,13,00,03,0.00
2010,09,13,00,04,0.00
2010,09,13,00,05,0.00
2010,09,13,00,06,0.00
2010,09,13,00,07,0.00
2010,09,13,00,08,0.00
2010,09,13,00,09,0.00
2010,09,13,00,10,0.00
2010,09,13,00,11,0.00
2010,09,13,00,12,0.00
2010,09,13,00,13,0.00
2010,09,13,00,14,0.00
2010,09,13,00,15,0.00
2010,09,13,00,16,0.00
2010,09,13,00,17,0.00
2010,09,13,00,18,0.00
2010,09,13,00,19,0.00
2010,09,13,00,20,0.00
2010,09,13,00,21,0.00
2010,09,13,00,22,0.00
2010,09,13,00,23,0.00
2010,09,13,00,24,0.00
2010,09,13,00,25,0.00
2010,09,13,00,26,0.00
2010,09,13,00,27,0.00
2010,09,13,00,28,0.00
2010,09,13,00,29,0.00
2010,09,13,00,30,0.00
2010,09,13,00,31,0.00
2010,09,13,00,32,0.00
2010,09,13,00,33,0.00
2010,09,13,00,34,0.00
2010,09,13,00,35,0.00
2010,09,13,00,36,0.00
2010,09,13,00,37,0.00
2010,09,13,00,38,0.00
2010,09,13,00,39,0.00
2010,09,13,00,40,0.00
2010,09,13,00,41,0.00
2010,09,13,00,42,0.00
2010,09,13,00,43,0.00
2010,09,13,00,44,0.00
2010,09,13,00,45,0.00
2010,09,13,00,46,0.00
2010,09,13,00,47,0.00
2010,09,13,00,48,0.00
2010,09,13,00,49,0.00
2010,09,13,00,50,0.00
2010,09,13,00,51,0.00
2010,09,13,00,52,0.00
2010,09,13,00,53,0.00
2010,09,13,00,54,0.00
2010,09,13,00,55,0.00
2010,09,13,00,56,0.00
2010,09,13,00,57,0.00
2010,09,13,00,58,0.00
2010,09,13,00,59,0.00
2010,09,13,01,00,0.00
2010,09,13,01,01,0.00
2010,09,13,01,02,0.00
2010,09,13,01,03,0.00
2010,09,13,01,04,0.00
2010,09,13,01,05,0.00
2010,09,13,01,06,0.00
2010,09,13,01,07,0.00
2010,09,13,01,08,0.00
2010,09,13,01,09,0.00
2010,09,13,01,10,0.00
2010,09,13,01,11,0.00
2010,09,13,01,12,0.00
2010,09,13,01,13,0.00
2010,09,13,01,14,0.00
2010,09,13,01,15,0.00
2010,09,13,01,16,0.00
2010,09,13,01,17,0.00
2010,09,13,01,18,0.00
2010,09,13,01,19,0.00
2010,09,13,01,20,0.00
2010,09,13,01,21,0.00
2010,09,13,01,22,0.00
2010,09,13,01,23,0.00
2010,09,13,01,24,0.00
2010,09,13,01,25,0.00
2010,09,13,01,26,0.00
2010,09,13,01,27,0.00
2010,09,13,01,28,0.00
2010,09,13,01,29,0.00
2010,09,13,01,30,0.00
2010,09,13,01,31,0.00
2010,09,13,01,32,0.00
2010,09,13,01,33,0.00
2010,09,13,01,34,0.00
2010,09,13,01,35,0.00
2010,09,13,01,36,0.00
2010,09,13,01,37,0.00
2010,09,13,01,38,0.00
2010,09,13,01,39,0.00
2010,09,13,01,40,0.00
2010,09,13,01,41,0.00
2010,09,13,01,42,0.00
2010,09,13,01,43,0.00
2010,09,13,01,44,0.00
2010,09,13,01,45,0.00
2010,09,13,01,46,0.00
2010,09,13,01,47,0.00
2010,09,13,01,48,0.00
2010,09,13,01,49,0.00
2010,09,13,01,50,0.00
2010,09,13,01,51,0.00
2010,09,13,01,52,0.00
2010,09,13,01,53,0.00
2010,09,13,01,54,0.00
2010,09,13,01,55,0.00
2010,09,13,01,56,0.00
2010,09,13,01,57,0.00
2010,09,13,01,58,0.00
2010,09,13,01,59,0.00
2010,09,13,02,00,0.00
2010,09,13,02,01,0.00
2010,09,13,02,02,0.00
2010,09,13,02,03,0.00
2010,09,13,02,04,0.00
2010,09,13,02,05,0.00
2010,09,13,02,06,0.00
2010,09,13,02,07,0.00
2010,09,13,02,08,0.00
2010,09,13,02,09,0.00
2010,09,13,02,10,0.00
2010,09,13,02,11,0.00
2010,09,13,02,12,0.00
2010,09,13,02,13,0.00
2010,09,13,02,14,0.00
2010,09,13,02,15,0.00
2010,09,13,02,16,0.00
2010,09,13,02,17,0.00
2010,09,13,02,18,0.00
2010,09,13,02,19,0.00
2010,09,13,02,20,0.00
2010,09,13,02,21,0.00
2010,09,13,02,22,0.00
2010,09,13,02,23,0.00
2010,09,13,02,24,0.00
2010,09,13,02,25,0.00
2010,09,13,02,26,0.00
2010,09,13,02,27,0.00
2010,09,13,02,28,0.00
2010,09,13,02,29,0.00
2010,09,13,02,30,0.00
2010,09,13,02,31,0.00
2010,09,13,02,32,0.00
2010,09,13,02,33,0.00
2010,09,13,02,34,0.00
2010,09,13,02,35,0.00
2010,09,13,02,36,0.00
2010,09,13,02,37,0.00
2010,09,13,02,38,0.00
2010,09,13,02,39,0.00
2010,09,13,02,40,0.00
2010,09,13,02,41,0.00
2010,09,13,02,42,0.00
2010,09,13,02,43,0.00
2010,09,13,02,44,0.00
2010,09,13,02,45,0.00
2010,09,13,02,46,0.00
2010,09,13,02,47,0.00
2010,09,13,02,48,0.00
2010,09,13,02,49,0.00
2010,09,13,02,50,0.00
2010,09,13,02,51,0.00
2010,09,13,02,52,0.00
2010,09,13,02,53,0.00
2010,09,13,02,54,0.00
2010,09,13,02,55,0.00
2010,09,13,02,56,0.00
2010,09,13,02,57,0.00
2010,09,13,02,58,0.00
2010,09,13,02,59,0.00
2010,09,13,03,00,0.00
2010,09,13,03,01,0.00
2010,09,13,03,02,0.00
2010,09,13,03,03,0.00
2010,09,13,03,04,0.00
2010,09,13,03,05,0.00
2010,09,13,03,06,0.00
2010,09,13,03,07,0.00
2010,09,13,03,08,0.00
2010,09,13,03,09,0.00
2010,09,13,03,10,0.00
2010,09,13,03,11,0.00
2010,09,13,03,12,0.00
2010,09,13,03,13,0.00
2010,09,13,03,14,0.00
2010,09,13,03,15,0.00
2010,09,13,03,16,0.00
2010,09,13,03,17,0.00
2010,09,13,03,18,0.00
2010,09,13,03,19,0.00
2010,09,13,03,20,0.00
2010,09,13,03,21,0.00
2010,09,13,03,22,0.00
2010,09,13,03,23,0.00
2010,09,13,03,24,0.00
2010,09,13,03,25,0.00
2010,09,13,03,26,0.00
2010,09,13,03,27,0.00
2010,09,13,03,28,0.00
2010,09,13,03,29,0.00
2010,09,13,03,30,0.00
2010,09,13,03,31,0.00
2010,09,13,03,32,0.00
2010,09,13,03,33,0.00
2010,09,13,03,34,0.00
2010,09,13,03,35,0.00
2010,09,13,03,36,0.00
2010,09,13,03,37,0.00
2010,09,13,03,38,0.00
2010,09,13,03,39,0.00
2010,09,13,03,40,0.00
2010,09,13,03,41,0.00
2010,09,13,03,42,0.00
2010,09,13,03,43,0.00
2010,09,13,03,44,0.00
2010,09,13,03,45,0.00
2010,09,13,03,46,0.00
2010,09,13,03,47,0.00
2010,09,13,03,48,0.00
2010,09,13,03,49,0.00
2010,09,13,03,50,0.00
2010,09,13,03,51,0.00
2010,09,13,03,52,0.00
2010,09,13,03,53,0.00
2010,09,13,03,54,0.00
2010,09,13,03,55,0.00
2010,09,13,03,56,0.00
2010,09,13,03,57,0.00
2010,09,13,03,58,0.00
2010,09,13,03,59,0.00
2010,09,13,04,00,0.00
2010,09,13,04,01,0.00
2010,09,13,04,02,0.00
2010,09,13,04,03,0.00
2010,09,13,04,04,0.00
2010,09,13,04,05,0.00
2010,09,13,04,06,0.00
2010,09,13,04,07,0.00
2010,09,13,04,08,0.00
2010,09,13,04,09,0.00
2010,09,13,04,10,0.00
2010,09,13,04,11,0.00
2010,09,13,04,12,0.00
2010,09,13,04,13,0.00
2010,09,13,04,14,0.00
2010,09,13,04,15,0.00
2010,09,13,04,16,0.00
2010,09,13,04,17,0.00
2010,09,13,04,18,0.00
2010,09,13,04,19,0.00
2010,09,13,04,20,0.00
2010,09,13,04,21,0.00
2010,09,13,04,22,0.00
2010,09,13,04,23,0.00
2010,09,13,04,24,0.00
2010,09,13,04,25,0.00
2010,09,13,04,26,0.00
2010,09,13,04,27,0.00
2010,09,13,04,28,0.00
2010,09,13,04,29,0.00
2010,09,13,04,30,0.00
2010,09,13,04,31,0.00
2010,09,13,04,32,0.00
2010,09,13,04,33,0.00
2010,09,13,04,34,0.00
2010,09,13,04,35,0.00
2010,09,13,04,36,0.00
2010,09,13,04,37,0.00
2010,09,13,04,38,0.00
2010,09,13,04,39,0.00
2010,09,13,04,40,0.00
2010,09,13,04,41,0.00
2010,09,13,04,42,0.00
2010,09,13,04,43,0.00
2010,09,13,04,44,0.00
2010,09,13,04,45,0.00
2010,09,13,04,46,0.00
2010,09,13,04,47,0.00
2010,09,13,04,48,0.00
2010,09,13,04,49,0.00
2010,09,13,04,50,0.00
2010,09,13,04,51,0.00
2010,09,13,04,52,0.00
2010,09,13,04,53,0.00
2010,09,13,04,54,0.00
2010,09,13,04,55,0.00
2010,09,13,04,56,0.00
2010,09,13,04,57,0.00
2010,09,13,04,58,0.00
2010,09,13,04,59,0.00
2010,09,13,05,00,0.00
2010,09,13,05,01,0.00
2010,09,13,05,02,0.00
2010,09,13,05,03,0.00
2010,09,13,05,04,0.00
2010,09,13,05,05,0.00
2010,09,13,05,06,0.00
2010,09,13,05,07,0.00
2010,09,13,05,08,0.00
2010,09,13,05,09,0.00
2010,09,13,05,10,0.00
2010,09,13,05,11,0.00
2010,09,13,05,12,0.00
2010,09,13,05,13,0.00
2010,09,13,05,14,0.00
2010,09,13,05,15,0.00
2010,09,13,05,16,0.00
2010,09,13,05,17,0.00
2010,09,13,05,18,0.00
2010,09,13,05,19,0.00
2010,09,13,05,20,0.00
2010,09,13,05,21,0.00
2010,09,13,05,22,0.00
2010,09,13,05,23,0.00
2010,09,13,05,24,0.00
2010,09,13,05,25,0.00
2010,09,13,05,26,0.00
2010,09,13,05,27,0.00
2010,09,13,05,28,0.00
2010,09,13,05,29,0.00
2010,09,13,05,30,0.00
2010,09,13,05,31,0.00
2010,09,13,05,32,0.00
2010,09,13,05,33,0.00
2010,09,13,05,34,0.00
2010,09,13,05,35,0.00
2010,09,13,05,36,0.00
2010,09,13,05,37,0.00
2010,09,13,05,38,0.00
2010,09,13,05,39,0.00
2010,09,13,05,40,0.00
2010,09,13,05,41,0.00
2010,09,13,05,42,0.00
2010,09,13,05,43,0.00
2010,09,13,05,44,0.00
2010,09,13,05,45,0.00
2010,09,13,05,46,0.00
2010,09,13,05,47,0.00
2010,09,13,05,48,0.00
2010,09,13,05,49,0.00
2010,09,13,05,50,0.00
2010,09,13,05,51,0.00
2010,09,13,05,52,0.00
2010,09,13,05,53,0.00
2010,09,13,05,54,0.00
2010,09,13,05,55,0.00
2010,09,13,05,56,0.00
2010,09,13,05,57,0.00
2010,09,13,05,58,0.00
2010,09,13,05,59,0.00
2010,09,13,06,00,0.00
2010,09,13,06,01,0.00
2010,09,13,06,02,0.00
2010,09,13,06,03,0.00
2010,09,13,06,04,0.00
2010,09,13,06,05,0.00
2010,09,13,06,06,0.00
2010,09,13,06,07,0.00
2010,09,13,06,08,0.00
2010,09,13,06,09,0.00
2010,09,13,06,10,0.00
2010,09,13,06,11,0.00
2010,09,13,06,12,0.00
2010,09,13,06,13,0.00
2010,09,13,06,14,0.00
2010,09,13,06,15,0.00
2010,09,13,06,16,0.00
2010,09,13,06,17,0.00
2010,09,13,06,18,0.00
2010,09,13,06,19,0.00
2010,09,13,06,20,0.00
2010,09,13,06,21,0.00
2010,09,13,06,22,0.00
2010,09,13,06,23,0.00
2010,09,13,06,24,0.00
2010,09,13,06,25,0.00
2010,09,13,06,26,0.00
2010,09,13,06,27,0.00
2010,09,13,06,28,0.00
2010,09,13,06,29,0.00
2010,09,13,06,30,0.00
2010,09,13,06,31,0.00
2010,09,13,06,32,0.00
2010,09,13,06,33,0.00
2010,09,13,06,34,0.00
2010,09,13,06,35,0.00
2010,09,13,06,36,0.00
2010,09,13,06,37,0.00
2010,09,13,06,38,0.00
2010,09,13,06,39,0.00
2010,09,13,06,40,0.00
2010,09,13,06,41,0.00
2010,09,13,06,42,0.00
2010,09,13,06,43,0.00
2010,09,13,06,44,0.00
2010,09,13,06,45,0.00
2010,09,13,06,46,0.00
2010,09,13,06,47,0.00
2010,09,13,06,48,0.00
2010,09,13,06,49,0.00
2010,09,13,06,50,0.00
2010,09,13,06,51,0.00
2010,09,13,06,52,0.00
2010,09,13,06,53,0.00
2010,09,13,06,54,0.00
2010,09,13,06,55,0.00
2010,09,13,06,56,0.00
2010,09,13,06,57,0.00
2010,09,13,06,58,0.00
2010,09,13,06,59,0.00
2010,09,13,07,00,0.00
2010,09,13,07,01,0.00
2010,09,13,07,02,0.00
2010,09,13,07,03,0.00
2010,09,13,07,04,0.00
2010,09,13,07,05,0.00
2010,09,13,07,06,0.00
2010,09,13,07,07,0.00
2010,09,13,07,08,0.00
2010,09,13,07,09,0.00
2010,09,13,07,10,0.00
2010,09,13,07,11,0.50
2010,09,13,07,12,5.00
2010,09,13,07,13,5.00
2010,09,13,07,14,5.00
2010,09,13,07,15,6.00
2010,09,13,07,16,7.00
2010,09,13,07,17,7.00
2010,09,13,07,18,7.00
2010,09,13,07,19,7.00
2010,09,13,07,20,7.00
2010,09,13,07,21,7.00
2010,09,13,07,22,7.00
2010,09,13,07,23,7.00
2010,09,13,07,24,7.00
2010,09,13,07,25,7.00
2010,09,13,07,26,8.40
2010,09,13,07,27,9.00
2010,09,13,07,28,9.00
2010,09,13,07,29,9.30
2010,09,13,07,30,11.00
2010,09,13,07,31,11.00
2010,09,13,07,32,11.00
2010,09,13,07,33,11.00
2010,09,13,07,34,11.00
2010,09,13,07,35,11.80
2010,09,13,07,36,12.00
2010,09,13,07,37,14.10
2010,09,13,07,38,16.40
2010,09,13,07,39,17.40
2010,09,13,07,40,16.80
2010,09,13,07,41,18.50
2010,09,13,07,42,20.20
2010,09,13,07,43,21.00
2010,09,13,07,44,21.00
2010,09,13,07,45,22.80
2010,09,13,07,46,22.80
2010,09,13,07,47,21.00
2010,09,13,07,48,21.00
2010,09,13,07,49,21.90
2010,09,13,07,50,23.00
2010,09,13,07,51,23.00
2010,09,13,07,52,21.50
2010,09,13,07,53,21.00
2010,09,13,07,54,20.90
2010,09,13,07,55,19.00
2010,09,13,07,56,19.00
2010,09,13,07,57,19.00
2010,09,13,07,58,19.90
2010,09,13,07,59,22.20
2010,09,13,08,00,24.30
2010,09,13,08,01,25.00
2010,09,13,08,02,25.90
2010,09,13,08,03,26.20
2010,09,13,08,04,28.00
2010,09,13,08,05,28.00
2010,09,13,08,06,28.00
2010,09,13,08,07,29.00
2010,09,13,08,08,31.90
2010,09,13,08,09,33.00
2010,09,13,08,10,33.00
2010,09,13,08,11,39.90
2010,09,13,08,12,46.50
2010,09,13,08,13,49.50
2010,09,13,08,14,51.70
2010,09,13,08,15,53.50
2010,09,13,08,16,55.10
2010,09,13,08,17,54.70
2010,09,13,08,18,51.80
2010,09,13,08,19,47.40
2010,09,13,08,20,47.40
2010,09,13,08,21,51.40
2010,09,13,08,22,53.00
2010,09,13,08,23,53.00
2010,09,13,08,24,53.00
2010,09,13,08,25,53.00
2010,09,13,08,26,53.00
2010,09,13,08,27,53.80
2010,09,13,08,28,55.90
2010,09,13,08,29,58.20
2010,09,13,08,30,60.00
2010,09,13,08,31,59.30
2010,09,13,08,32,58.00
2010,09,13,08,33,58.00
2010,09,13,08,34,59.30
2010,09,13,08,35,61.50
2010,09,13,08,36,62.00
2010,09,13,08,37,62.00
2010,09,13,08,38,62.00
2010,09,13,08,39,62.00
2010,09,13,08,40,62.00
2010,09,13,08,41,62.00
2010,09,13,08,42,62.50
2010,09,13,08,43,64.30
2010,09,13,08,44,66.60
2010,09,13,08,45,68.80
2010,09,13,08,46,68.90
2010,09,13,08,47,67.00
2010,09,13,08,48,66.40
2010,09,13,08,49,64.20
2010,09,13,08,50,63.00
2010,09,13,08,51,63.00
2010,09,13,08,52,63.00
2010,09,13,08,53,63.00
2010,09,13,08,54,63.00
2010,09,13,08,55,61.70
2010,09,13,08,56,60.00
2010,09,13,08,57,58.60
2010,09,13,08,58,54.60
2010,09,13,08,59,53.00
2010,09,13,09,00,53.70
2010,09,13,09,01,55.50
2010,09,13,09,02,57.70
2010,09,13,09,03,60.10
2010,09,13,09,04,62.20
2010,09,13,09,05,63.00
2010,09,13,09,06,63.80
2010,09,13,09,07,65.00
2010,09,13,09,08,66.30
2010,09,13,09,09,68.40
2010,09,13,09,10,69.00
2010,09,13,09,11,71.70
2010,09,13,09,12,74.30
2010,09,13,09,13,76.00
2010,09,13,09,14,76.30
2010,09,13,09,15,77.90
2010,09,13,09,16,80.10
2010,09,13,09,17,84.20
2010,09,13,09,18,89.00
2010,09,13,09,19,90.00
2010,09,13,09,20,92.70
2010,09,13,09,21,91.00
2010,09,13,09,22,91.00
2010,09,13,09,23,91.00
2010,09,13,09,24,91.00
2010,09,13,09,25,91.00
2010,09,13,09,26,92.40
2010,09,13,09,27,94.60
2010,09,13,09,28,99.50
2010,09,13,09,29,105.60
2010,09,13,09,30,112.40
2010,09,13,09,31,120.20
2010,09,13,09,32,127.80
2010,09,13,09,33,132.00
2010,09,13,09,34,137.70
2010,09,13,09,35,141.70
2010,09,13,09,36,141.20
2010,09,13,09,37,135.30
2010,09,13,09,38,129.20
2010,09,13,09,39,124.00
2010,09,13,09,40,120.70
2010,09,13,09,41,120.00
2010,09,13,09,42,117.60
2010,09,13,09,43,116.00
2010,09,13,09,44,116.00
2010,09,13,09,45,116.00
2010,09,13,09,46,116.10
2010,09,13,09,47,118.40
2010,09,13,09,48,120.30
2010,09,13,09,49,122.60
2010,09,13,09,50,126.10
2010,09,13,09,51,127.00
2010,09,13,09,52,127.70
2010,09,13,09,53,128.00
2010,09,13,09,54,128.00
2010,09,13,09,55,132.30
2010,09,13,09,56,135.50
2010,09,13,09,57,138.40
2010,09,13,09,58,142.40
2010,09,13,09,59,146.20
2010,09,13,10,00,148.60
2010,09,13,10,01,152.00
2010,09,13,10,02,154.70
2010,09,13,10,03,155.10
2010,09,13,10,04,156.00
2010,09,13,10,05,156.60
2010,09,13,10,06,158.70
2010,09,13,10,07,161.40
2010,09,13,10,08,166.60
2010,09,13,10,09,169.00
2010,09,13,10,10,176.10
2010,09,13,10,11,178.90
2010,09,13,10,12,181.20
2010,09,13,10,13,182.60
2010,09,13,10,14,179.90
2010,09,13,10,15,176.30
2010,09,13,10,16,173.00
2010,09,13,10,17,173.20
2010,09,13,10,18,177.70
2010,09,13,10,19,179.00
2010,09,13,10,20,193.80
2010,09,13,10,21,202.80
2010,09,13,10,22,208.00
2010,09,13,10,23,211.00
2010,09,13,10,24,209.20
2010,09,13,10,25,203.10
2010,09,13,10,26,195.40
2010,09,13,10,27,187.80
2010,09,13,10,28,181.80
2010,09,13,10,29,180.10
2010,09,13,10,30,171.80
2010,09,13,10,31,170.40
2010,09,13,10,32,169.80
2010,09,13,10,33,171.00
2010,09,13,10,34,175.40
2010,09,13,10,35,180.10
2010,09,13,10,36,182.60
2010,09,13,10,37,183.00
2010,09,13,10,38,183.40
2010,09,13,10,39,186.50
2010,09,13,10,40,188.00
2010,09,13,10,41,188.00
2010,09,13,10,42,185.40
2010,09,13,10,43,178.40
2010,09,13,10,44,176.00
2010,09,13,10,45,164.10
2010,09,13,10,46,152.40
2010,09,13,10,47,140.10
2010,09,13,10,48,129.10
2010,09,13,10,49,118.60
2010,09,13,10,50,114.00
2010,09,13,10,51,109.90
2010,09,13,10,52,105.60
2010,09,13,10,53,104.20
2010,09,13,10,54,100.40
2010,09,13,10,55,98.70
2010,09,13,10,56,90.40
2010,09,13,10,57,87.30
2010,09,13,10,58,84.70
2010,09,13,10,59,83.00
2010,09,13,11,00,81.70
2010,09,13,11,01,78.10
2010,09,13,11,02,76.20
2010,09,13,11,03,72.20
2010,09,13,11,04,71.00
2010,09,13,11,05,64.50
2010,09,13,11,06,62.70
2010,09,13,11,07,62.00
2010,09,13,11,08,62.50
2010,09,13,11,09,63.00
2010,09,13,11,10,63.00
2010,09,13,11,11,63.00
2010,09,13,11,12,67.00
2010,09,13,11,13,69.00
2010,09,13,11,14,69.30
2010,09,13,11,15,71.60
2010,09,13,11,16,76.50
2010,09,13,11,17,83.40
2010,09,13,11,18,89.50
2010,09,13,11,19,91.00
2010,09,13,11,20,103.40
2010,09,13,11,21,105.00
2010,09,13,11,22,105.00
2010,09,13,11,23,105.00
2010,09,13,11,24,105.00
2010,09,13,11,25,107.20
2010,09,13,11,26,112.20
2010,09,13,11,27,118.50
2010,09,13,11,28,124.50
2010,09,13,11,29,127.80
2010,09,13,11,30,128.00
2010,09,13,11,31,127.70
2010,09,13,11,32,125.40
2010,09,13,11,33,122.00
2010,09,13,11,34,120.40
2010,09,13,11,35,118.60
2010,09,13,11,36,118.00
2010,09,13,11,37,117.90
2010,09,13,11,38,115.60
2010,09,13,11,39,113.00
2010,09,13,11,40,111.70
2010,09,13,11,41,109.80
2010,09,13,11,42,112.70
2010,09,13,11,43,117.80
2010,09,13,11,44,123.50
2010,09,13,11,45,125.00
2010,09,13,11,46,117.90
2010,09,13,11,47,107.90
2010,09,13,11,48,101.00
2010,09,13,11,49,97.70
2010,09,13,11,50,97.00
2010,09,13,11,51,97.00
2010,09,13,11,52,99.10
2010,09,13,11,53,101.50
2010,09,13,11,54,102.00
2010,09,13,11,55,112.60
2010,09,13,11,56,114.80
2010,09,13,11,57,118.60
2010,09,13,11,58,120.00
2010,09,13,11,59,120.00
2010,09,13,12,00,123.20
2010,09,13,12,01,126.50
2010,09,13,12,02,131.20
2010,09,13,12,03,136.50
2010,09,13,12,04,145.40
2010,09,13,12,05,155.10
2010,09,13,12,06,167.80
2010,09,13,12,07,185.40
2010,09,13,12,08,198.90
2010,09,13,12,09,204.60
2010,09,13,12,10,206.00
2010,09,13,12,11,206.00
2010,09,13,12,12,206.00
2010,09,13,12,13,205.10
2010,09,13,12,14,199.80
2010,09,13,12,15,199.00
2010,09,13,12,16,199.00
2010,09,13,12,17,199.00
2010,09,13,12,18,199.00
2010,09,13,12,19,199.00
2010,09,13,12,20,199.90
2010,09,13,12,21,206.70
2010,09,13,12,22,215.40
2010,09,13,12,23,228.60
2010,09,13,12,24,237.90
2010,09,13,12,25,239.00
2010,09,13,12,26,221.30
2010,09,13,12,27,199.00
2010,09,13,12,28,185.40
2010,09,13,12,29,176.40
2010,09,13,12,30,170.10
2010,09,13,12,31,164.50
2010,09,13,12,32,162.60
2010,09,13,12,33,161.10
2010,09,13,12,34,158.80
2010,09,13,12,35,154.80
2010,09,13,12,36,153.00
2010,09,13,12,37,153.00
2010,09,13,12,38,153.70
2010,09,13,12,39,160.00
2010,09,13,12,40,169.60
2010,09,13,12,41,202.90
2010,09,13,12,42,227.00
2010,09,13,12,43,236.00
2010,09,13,12,44,236.00
2010,09,13,12,45,236.00
2010,09,13,12,46,229.40
2010,09,13,12,47,230.30
2010,09,13,12,48,231.20
2010,09,13,12,49,227.50
2010,09,13,12,50,225.00
2010,09,13,12,51,231.40
2010,09,13,12,52,242.50
2010,09,13,12,53,258.00
2010,09,13,12,54,279.90
2010,09,13,12,55,303.90
2010,09,13,12,56,326.20
2010,09,13,12,57,338.70
2010,09,13,12,58,338.00
2010,09,13,12,59,344.00
2010,09,13,13,00,355.40
2010,09,13,13,01,361.10
2010,09,13,13,02,362.00
2010,09,13,13,03,326.00
2010,09,13,13,04,307.60
2010,09,13,13,05,295.00
2010,09,13,13,06,288.70
2010,09,13,13,07,274.00
2010,09,13,13,08,260.30
2010,09,13,13,09,277.40
2010,09,13,13,10,297.00
2010,09,13,13,11,410.70
2010,09,13,13,12,432.00
2010,09,13,13,13,440.90
2010,09,13,13,14,497.00
2010,09,13,13,15,497.00
2010,09,13,13,16,497.00
2010,09,13,13,17,824.20
2010,09,13,13,18,1115.30
2010,09,13,13,19,1127.00
2010,09,13,13,20,1127.00
2010,09,13,13,21,1127.00
2010,09,13,13,22,1127.00
2010,09,13,13,23,1067.90
2010,09,13,13,24,915.20
2010,09,13,13,25,893.00
2010,09,13,13,26,873.20
2010,09,13,13,27,850.20
2010,09,13,13,28,785.70
2010,09,13,13,29,775.00
2010,09,13,13,30,775.00
2010,09,13,13,31,775.00
2010,09,13,13,32,804.10
2010,09,13,13,33,867.50
2010,09,13,13,34,882.90
2010,09,13,13,35,880.00
2010,09,13,13,36,880.50
2010,09,13,13,37,881.90
2010,09,13,13,38,885.20
2010,09,13,13,39,871.60
2010,09,13,13,40,857.00
2010,09,13,13,41,856.30
2010,09,13,13,42,861.40
2010,09,13,13,43,836.60
2010,09,13,13,44,819.00
2010,09,13,13,45,819.00
2010,09,13,13,46,324.00
2010,09,13,13,47,310.10
2010,09,13,13,48,306.50
2010,09,13,13,49,320.00
2010,09,13,13,50,320.00
2010,09,13,13,51,320.00
2010,09,13,13,52,530.00
2010,09,13,13,53,670.00
2010,09,13,13,54,670.00
2010,09,13,13,55,315.70
2010,09,13,13,56,258.90
2010,09,13,13,57,243.50
2010,09,13,13,58,251.00
2010,09,13,13,59,296.90
2010,09,13,14,00,348.00
2010,09,13,14,01,348.00
2010,09,13,14,02,348.00
2010,09,13,14,03,348.00
2010,09,13,14,04,302.30
2010,09,13,14,05,315.00
2010,09,13,14,06,315.00
2010,09,13,14,07,290.20
2010,09,13,14,08,248.50
2010,09,13,14,09,225.40
2010,09,13,14,10,213.00
2010,09,13,14,11,184.40
2010,09,13,14,12,184.70
2010,09,13,14,13,200.10
2010,09,13,14,14,228.00
2010,09,13,14,15,292.60
2010,09,13,14,16,357.00
2010,09,13,14,17,503.50
2010,09,13,14,18,611.30
2010,09,13,14,19,612.00
2010,09,13,14,20,612.00
2010,09,13,14,21,626.00
2010,09,13,14,22,759.00
2010,09,13,14,23,759.00
2010,09,13,14,24,759.00
2010,09,13,14,25,562.50
2010,09,13,14,26,409.20
2010,09,13,14,27,438.00
2010,09,13,14,28,326.80
2010,09,13,14,29,274.80
2010,09,13,14,30,259.30
2010,09,13,14,31,248.80
2010,09,13,14,32,231.90
2010,09,13,14,33,219.90
2010,09,13,14,34,214.40
2010,09,13,14,35,210.60
2010,09,13,14,36,207.60
2010,09,13,14,37,207.00
2010,09,13,14,38,213.10
2010,09,13,14,39,220.40
2010,09,13,14,40,225.20
2010,09,13,14,41,235.90
2010,09,13,14,42,246.10
2010,09,13,14,43,252.90
2010,09,13,14,44,259.70
2010,09,13,14,45,260.40
2010,09,13,14,46,261.80
2010,09,13,14,47,263.40
2010,09,13,14,48,258.80
2010,09,13,14,49,262.00
2010,09,13,14,50,261.20
2010,09,13,14,51,255.50
2010,09,13,14,52,246.80
2010,09,13,14,53,241.90
2010,09,13,14,54,235.40
2010,09,13,14,55,230.30
2010,09,13,14,56,229.00
2010,09,13,14,57,229.30
2010,09,13,14,58,232.10
2010,09,13,14,59,237.40
2010,09,13,15,00,242.00
2010,09,13,15,01,243.30
2010,09,13,15,02,243.00
2010,09,13,15,03,245.60
2010,09,13,15,04,242.90
2010,09,13,15,05,237.90
2010,09,13,15,06,231.40
2010,09,13,15,07,229.60
2010,09,13,15,08,227.00
2010,09,13,15,09,222.70
2010,09,13,15,10,217.80
2010,09,13,15,11,212.00
2010,09,13,15,12,206.30
2010,09,13,15,13,201.70
2010,09,13,15,14,198.50
2010,09,13,15,15,195.70
2010,09,13,15,16,191.70
2010,09,13,15,17,187.80
2010,09,13,15,18,179.70
2010,09,13,15,19,166.20
2010,09,13,15,20,151.00
2010,09,13,15,21,175.40
2010,09,13,15,22,193.10
2010,09,13,15,23,200.20
2010,09,13,15,24,207.10
2010,09,13,15,25,216.10
2010,09,13,15,26,225.50
2010,09,13,15,27,231.40
2010,09,13,15,28,235.20
2010,09,13,15,29,236.90
2010,09,13,15,30,236.10
2010,09,13,15,31,235.20
2010,09,13,15,32,229.90
2010,09,13,15,33,219.40
2010,09,13,15,34,204.00
2010,09,13,15,35,187.40
2010,09,13,15,36,174.70
2010,09,13,15,37,169.60
2010,09,13,15,38,169.20
2010,09,13,15,39,175.40
2010,09,13,15,40,186.00
2010,09,13,15,41,198.90
2010,09,13,15,42,215.00
2010,09,13,15,43,228.90
2010,09,13,15,44,221.60
2010,09,13,15,45,208.90
2010,09,13,15,46,200.20
2010,09,13,15,47,192.40
2010,09,13,15,48,194.20
2010,09,13,15,49,201.40
2010,09,13,15,50,208.70
2010,09,13,15,51,210.00
2010,09,13,15,52,200.60
2010,09,13,15,53,189.10
2010,09,13,15,54,198.80
2010,09,13,15,55,187.60
2010,09,13,15,56,177.10
2010,09,13,15,57,168.00
2010,09,13,15,58,162.80
2010,09,13,15,59,155.80
2010,09,13,16,00,150.20
2010,09,13,16,01,145.30
2010,09,13,16,02,147.00
2010,09,13,16,03,154.80
2010,09,13,16,04,173.80
2010,09,13,16,05,189.40
2010,09,13,16,06,195.80
2010,09,13,16,07,187.80
2010,09,13,16,08,174.50
2010,09,13,16,09,163.60
2010,09,13,16,10,152.20
2010,09,13,16,11,142.80
2010,09,13,16,12,141.90
2010,09,13,16,13,152.40
2010,09,13,16,14,167.90
2010,09,13,16,15,183.20
2010,09,13,16,16,197.40
2010,09,13,16,17,212.00
2010,09,13,16,18,220.60
2010,09,13,16,19,221.00
2010,09,13,16,20,259.40
2010,09,13,16,21,242.40
2010,09,13,16,22,204.30
2010,09,13,16,23,192.00
2010,09,13,16,24,178.90
2010,09,13,16,25,167.90
2010,09,13,16,26,160.20
2010,09,13,16,27,154.80
2010,09,13,16,28,146.20
2010,09,13,16,29,136.30
2010,09,13,16,30,126.80
2010,09,13,16,31,123.00
2010,09,13,16,32,124.20
2010,09,13,16,33,127.00
2010,09,13,16,34,132.00
2010,09,13,16,35,140.20
2010,09,13,16,36,141.30
2010,09,13,16,37,136.20
2010,09,13,16,38,140.40
2010,09,13,16,39,146.40
2010,09,13,16,40,150.90
2010,09,13,16,41,161.90
2010,09,13,16,42,173.20
2010,09,13,16,43,218.10
2010,09,13,16,44,250.00
2010,09,13,16,45,438.60
2010,09,13,16,46,500.00
2010,09,13,16,47,483.00
2010,09,13,16,48,486.30
2010,09,13,16,49,492.00
2010,09,13,16,50,404.10
2010,09,13,16,51,235.30
2010,09,13,16,52,225.50
2010,09,13,16,53,220.90
2010,09,13,16,54,216.80
2010,09,13,16,55,217.80
2010,09,13,16,56,217.10
2010,09,13,16,57,209.50
2010,09,13,16,58,211.00
2010,09,13,16,59,211.00
2010,09,13,17,00,249.00
2010,09,13,17,01,263.00
2010,09,13,17,02,248.50
2010,09,13,17,03,255.20
2010,09,13,17,04,280.50
2010,09,13,17,05,307.50
2010,09,13,17,06,434.80
2010,09,13,17,07,425.00
2010,09,13,17,08,319.20
2010,09,13,17,09,179.00
2010,09,13,17,10,195.50
2010,09,13,17,11,206.00
2010,09,13,17,12,270.40
2010,09,13,17,13,271.90
2010,09,13,17,14,208.60
2010,09,13,17,15,265.00
2010,09,13,17,16,210.40
2010,09,13,17,17,161.50
2010,09,13,17,18,112.20
2010,09,13,17,19,105.00